SCP
0 0 0 0 0 0 0 0 0 0 0 0 0 0 0 0 0 1 1 1 1 1 1 1 0 0 1 1 1 0 0 0 0 0 0 0 0 0 0 0 0 0 0 0
0 0 0 0 0 0 0 0 0 0 0 0 0 0 0 0 0 1 1 1 1 1 1 1 1 0 1 1 1 1 0 0 0 0 0 0 0 0 0 0 0 0 0 0
0 0 0 0 0 0 0 0 0 0 0 0 0 0 0 0 0 1 1 1 1 1 1 1 1 1 1 1 1 1 1 0 0 0 1 1 0 0 0 0 0 0 0 0
0 0 0 0 0 0 0 0 0 0 0 0 0 0 0 0 0 1 1 1 1 0 1 1 1 1 1 1 1 1 1 1 1 1 1 1 1 0 0 0 0 0 0 0
0 0 0 0 0 0 0 0 0 0 0 0 0 0 0 0 0 0 1 1 1 0 0 1 1 1 1 1 1 1 1 1 1 1 1 1 1 1 0 0 0 0 0 0
0 0 0 0 0 0 0 0 0 0 0 0 0 0 0 0 0 0 1 1 1 0 0 1 1 1 2 2 2 2 2 2 1 1 1 1 1 1 1 0 0 0 0 0
0 0 0 0 0 0 0 0 0 0 0 0 0 0 0 0 0 0 1 1 1 0 0 1 1 1 2 2 2 2 2 2 2 2 2 2 1 1 1 0 0 0 0 0
0 0 0 0 0 0 0 0 0 0 0 0 0 0 0 0 0 0 1 1 1 1 0 1 1 1 2 2 3 2 2 2 2 2 1 1 1 1 1 1 0 0 0 0
0 0 0 0 0 0 0 0 0 0 0 0 0 0 0 0 0 0 1 1 1 1 0 1 1 1 2 2 2 2 2 2 2 2 1 1 1 1 1 0 0 0 0 0
0 0 0 0 0 0 0 0 0 0 0 0 0 0 0 0 0 0 1 1 1 1 1 1 1 1 2 2 2 2 2 2 2 2 1 1 1 0 0 0 0 0 0 0
0 0 0 0 0 0 0 0 0 0 0 0 0 0 0 0 0 0 1 1 1 1 1 1 1 1 1 2 2 2 2 2 2 1 1 1 1 0 0 0 0 0 0 0
0 0 0 0 0 0 0 0 0 0 0 0 0 0 0 0 0 1 1 1 1 1 1 1 1 1 1 2 2 1 1 1 1 1 1 1 0 0 0 0 0 0 0 0
0 0 0 0 0 0 0 0 0 0 0 0 0 0 0 0 0 1 1 1 1 1 1 1 1 1 1 1 1 1 1 1 1 1 1 1 0 0 0 0 0 0 0 0
0 0 0 0 0 0 0 0 0 0 0 0 0 0 0 0 0 1 1 1 1 1 1 1 1 1 1 1 1 1 1 1 1 1 1 1 0 0 0 0 0 0 0 0
0 0 0 0 0 0 0 0 0 0 0 0 0 0 0 0 0 0 0 1 1 1 1 1 1 1 1 1 1 1 1 1 1 1 1 1 0 0 0 0 0 0 0 0
0 0 0 0 0 0 0 0 0 0 0 0 0 0 0 0 0 0 0 1 1 1 1 1 1 1 1 1 1 1 1 1 1 1 1 1 1 0 0 0 0 0 0 0
0 0 0 0 0 0 0 0 0 0 0 0 0 0 0 0 1 1 0 1 1 1 1 1 1 1 1 1 1 1 1 1 1 1 1 1 1 1 0 0 0 0 0 0
0 0 0 0 0 0 0 0 0 0 0 0 0 0 0 0 0 0 0 1 0 0 0 1 1 1 1 1 1 1 1 1 1 0 0 0 0 1 0 0 0 0 0 0
0 0 0 0 0 0 0 0 0 0 0 0 0 1 0 0 0 0 0 1 1 0 0 1 1 1 1 1 1 1 1 1 0 0 0 0 0 1 1 0 0 0 0 0
0 0 0 0 0 0 0 0 0 0 0 0 0 0 0 0 0 0 0 1 1 1 0 0 1 1 1 1 1 1 1 1 0 0 0 0 0 1 1 1 0 0 0 0
0 0 0 0 0 0 0 0 0 0 0 0 0 0 0 0 1 1 1 1 1 1 1 1 1 1 1 1 1 1 1 1 1 1 1 0 1 1 1 1 1 1 1 1
0 0 0 0 0 0 0 0 0 0 0 0 0 0 0 1 1 2 2 1 1 1 1 1 1 1 1 1 1 1 1 1 1 1 1 1 1 1 1 1 1 1 1 1
0 0 0 0 0 0 0 0 0 0 0 0 0 0 0 1 2 2 2 1 1 1 1 1 1 1 2 2 2 2 2 2 2 1 1 1 1 1 1 1 1 1 1 1
0 0 0 0 0 0 0 0 0 0 0 0 0 1 1 1 1 1 1 1 1 1 1 1 1 1 2 2 3 2 2 2 2 1 1 1 1 1 1 1 1 1 1 1
0 0 0 0 0 0 0 0 0 1 0 0 1 1 1 1 1 1 1 1 1 1 1 1 1 1 1 2 2 2 2 2 2 1 1 1 1 1 1 1 1 0 0 0
0 0 0 0 0 0 0 0 1 1 0 0 1 1 1 1 1 1 1 1 1 1 1 1 1 1 1 1 1 1 1 1 1 1 1 1 1 1 1 1 0 0 0 0
Wind_Speed
6 7 6 6 7 7 6 5 3 1 3 3 5 6 7 10 9 8 8 8 9 8 8 7 6 6 5 4 4 6 6 5 4 2 2 2 2 1 2 2 2 2 2 3
7 8 7 4 4 6 7 6 3 1 2 3 6 7 6 9 10 9 9 9 8 8 8 8 7 7 6 5 4 5 6 5 4 1 2 3 3 2 2 2 2 2 2 2
9 4 4 5 6 6 6 5 4 3 2 5 7 6 6 8 9 8 8 8 9 9 10 10 8 7 7 5 4 5 6 5 5 3 2 3 3 2 2 2 1 2 2 2
8 5 4 5 6 6 5 4 4 4 4 4 5 4 5 8 8 8 8 7 8 9 9 10 9 8 7 6 4 5 5 5 5 5 3 3 3 2 2 2 2 2 2 2
5 5 5 6 5 5 4 4 4 6 6 7 8 6 3 7 8 9 9 9 8 9 9 10 10 9 7 6 4 4 5 5 4 5 4 2 2 2 2 2 3 2 2 2
8 5 5 5 4 4 3 4 6 6 5 7 9 7 2 5 7 8 8 9 9 9 9 10 9 8 7 6 5 4 5 4 4 4 4 3 3 3 3 2 2 2 2 1
9 8 6 4 5 5 5 4 3 4 5 5 4 4 1 5 5 5 6 7 8 8 9 9 10 9 8 8 6 5 5 5 4 3 4 4 4 4 4 3 2 2 2 1
8 8 8 6 6 5 6 7 4 3 3 2 2 3 3 8 6 4 5 5 7 7 8 9 9 8 9 9 7 6 6 5 4 3 3 3 4 2 2 3 3 2 2 2
5 5 7 7 6 7 7 7 8 7 9 6 3 2 7 6 6 4 5 6 6 8 8 10 10 9 8 9 8 7 6 5 4 3 3 3 4 3 2 3 2 2 2 2
7 6 6 7 6 9 8 6 4 4 4 5 3 3 3 6 5 4 5 5 6 7 9 10 10 9 9 8 7 7 7 6 5 4 3 3 3 3 2 2 2 2 2 2
10 8 6 8 8 8 8 7 6 5 5 4 3 1 4 5 4 4 4 5 6 7 8 9 9 9 9 9 8 7 6 6 5 5 3 3 3 4 3 2 2 2 2 3
8 7 7 8 7 7 8 8 7 5 5 5 4 0 2 4 4 3 4 5 6 6 7 8 9 9 9 9 9 8 7 6 5 5 4 4 4 4 4 3 2 2 2 2
4 6 7 7 7 8 9 9 8 7 6 6 5 2 3 3 3 4 3 4 6 6 7 7 8 8 8 8 8 7 7 6 6 5 5 5 5 4 4 4 3 2 1 2
4 9 10 9 5 6 9 10 9 9 6 7 7 2 3 2 2 3 3 4 6 6 6 7 7 7 8 8 8 8 7 6 6 5 5 5 5 5 5 4 4 3 3 2
6 10 13 12 9 8 10 11 12 12 11 10 9 6 3 3 2 3 3 4 5 6 7 7 7 7 7 7 7 8 7 6 7 6 5 4 5 5 4 4 3 3 3 2
7 10 12 13 12 10 12 13 14 14 13 12 11 7 2 2 2 3 3 4 4 6 7 8 7 7 8 8 8 8 8 7 7 7 6 5 5 5 5 5 4 4 3 3
8 10 11 11 11 11 13 12 13 12 11 10 9 5 2 1 2 2 3 3 3 4 6 8 8 8 8 9 8 8 8 8 7 7 6 6 5 5 5 5 5 4 4 3
11 10 7 8 10 13 8 4 7 9 9 7 6 4 3 2 2 2 3 3 2 2 4 6 7 6 7 8 8 8 8 8 7 7 7 6 6 6 5 5 5 4 4 4
12 10 8 8 10 11 7 5 6 6 6 4 4 3 3 2 3 2 2 3 3 3 2 3 4 5 6 7 8 8 8 8 8 7 7 7 7 7 6 6 5 5 4 4
12 11 9 8 9 9 5 2 1 4 5 2 3 2 2 3 3 2 2 3 3 3 2 2 2 3 5 5 7 8 8 8 8 7 7 7 7 7 7 7 6 4 4 4
12 12 12 11 10 8 3 1 1 5 2 1 1 1 1 2 1 1 3 3 4 3 2 2 2 2 2 4 6 6 6 7 7 7 7 7 7 7 7 6 5 5 5 5
10 9 11 10 10 7 1 2 3 1 1 1 1 0 0 1 1 1 3 4 4 3 3 3 2 2 2 3 5 5 5 5 6 7 7 6 6 6 6 6 6 5 5 5
10 7 4 5 4 1 1 1 1 2 3 2 2 1 1 1 1 2 3 3 3 3 3 3 2 2 2 3 4 4 4 4 6 7 6 6 6 5 5 6 6 5 4 4
7 7 7 7 5 4 2 1 2 2 2 3 2 1 0 0 1 2 2 2 2 3 3 3 3 3 3 2 2 3 4 4 6 6 6 6 5 5 4 4 4 4 4 4
5 5 7 8 5 4 3 3 2 2 2 3 3 2 1 1 1 1 2 2 2 2 2 2 3 3 3 3 3 3 4 5 6 6 6 6 5 5 5 4 3 4 3 4
7 6 5 4 4 4 2 2 2 2 1 1 2 2 2 0 1 1 2 2 2 3 3 3 3 3 3 4 3 3 3 4 5 5 5 4 5 5 5 5 4 5 4 5
Wind_Direction
210 231 230 224 229 272 293 286 263 207 164 224 245 236 201 189 197 198 189 186 181 175 160 145 139 137 136 134 136 135 136 131 121 117 115 113 99 82 76 69 64 53 43 65
216 234 243 241 249 267 276 281 275 247 180 254 255 246 217 192 197 200 195 187 176 170 155 149 158 157 146 150 167 146 138 135 127 131 139 131 124 110 95 75 63 63 67 69
228 231 230 239 242 254 259 272 287 294 282 260 263 254 219 196 196 194 198 184 175 174 165 163 165 149 147 160 173 152 140 138 134 128 95 101 89 80 88 86 63 48 62 54
240 242 238 240 243 256 266 276 285 281 274 272 250 271 222 191 184 189 188 184 182 179 168 162 157 151 157 160 165 150 142 138 131 126 118 125 130 139 141 135 140 117 97 80
234 220 239 248 247 253 285 314 281 271 268 273 258 259 236 171 180 188 187 185 184 176 167 161 156 158 158 147 142 133 124 121 120 128 126 120 129 138 125 125 128 122 105 104
246 225 233 248 262 253 262 272 260 250 260 260 243 236 234 172 178 178 179 183 180 174 166 157 151 151 144 138 136 130 123 122 125 135 140 150 144 136 132 132 140 138 130 122
231 217 208 224 239 231 239 247 250 222 218 243 215 213 182 118 126 147 165 174 169 164 159 155 152 154 149 147 146 140 134 134 145 161 166 164 158 158 153 148 145 145 135 134
222 213 194 201 229 234 231 234 254 276 275 288 195 209 117 107 110 128 148 155 156 159 161 156 155 157 153 152 152 153 151 151 155 173 180 160 150 139 129 133 134 142 134 144
238 213 181 187 221 239 235 241 261 286 296 289 223 153 110 114 123 135 144 151 160 164 160 155 153 159 158 155 156 160 155 152 159 173 184 166 143 137 141 143 132 129 142 141
272 254 201 181 208 233 247 266 269 264 284 279 264 215 162 147 138 136 142 151 154 159 162 159 156 161 162 156 156 161 160 164 168 171 183 157 135 133 141 143 141 140 135 132
266 258 210 192 209 222 222 237 247 260 265 281 294 42 81 115 118 138 146 146 151 158 162 157 156 160 158 153 156 163 166 163 162 168 169 153 141 142 142 134 152 161 155 150
257 268 240 218 209 225 229 239 242 248 263 266 273 167 84 102 107 111 117 127 142 148 151 152 155 157 160 161 163 168 171 167 165 168 166 161 161 163 154 157 170 165 160 157
268 263 248 210 198 207 229 231 243 253 262 264 261 170 125 107 109 106 110 122 132 141 146 149 153 160 162 161 164 167 170 165 163 169 173 169 166 167 160 160 157 159 150 145
274 257 255 245 243 214 228 237 236 242 247 258 263 230 189 180 142 130 137 139 140 148 153 154 156 163 164 165 170 167 168 166 165 167 175 175 170 166 166 162 160 153 142 130
247 256 262 267 264 246 237 238 237 240 245 253 264 257 229 179 159 146 144 152 155 158 161 163 164 169 168 169 173 167 167 167 167 165 173 178 166 155 149 144 142 133 130 134
238 258 264 265 265 259 251 237 236 240 244 254 266 272 244 177 162 150 156 163 171 173 169 168 172 176 179 174 173 169 167 168 168 165 168 167 161 151 150 150 147 139 136 130
234 253 260 262 263 260 248 241 234 237 239 245 252 260 261 184 169 174 162 164 190 185 172 171 178 185 186 180 176 175 173 169 170 167 167 167 166 159 161 155 145 143 143 129
237 246 254 260 259 246 245 239 237 239 239 239 245 249 254 209 160 148 147 164 192 183 173 170 176 183 183 177 173 172 166 165 168 170 170 168 165 161 157 152 154 151 144 138
229 233 241 243 249 254 253 246 235 237 240 237 238 248 253 217 188 182 168 155 164 163 164 167 174 178 180 174 167 166 167 170 174 177 175 171 168 163 161 161 161 157 153 153
219 226 233 239 243 242 243 233 250 248 236 230 233 237 263 226 211 190 156 140 139 134 141 160 185 181 175 164 160 167 174 174 178 176 172 169 166 165 165 167 163 160 156 160
208 216 224 236 244 251 265 199 190 223 223 122 217 199 254 264 250 158 133 126 118 122 135 149 167 157 164 158 158 173 178 179 173 164 162 163 165 168 167 165 162 159 160 159
218 216 219 226 236 239 239 174 210 303 10 33 9 337 276 350 3 56 112 123 123 122 121 123 144 146 147 158 160 174 180 168 153 149 153 157 161 165 165 158 160 158 157 162
221 220 224 228 231 219 158 166 2 337 317 360 9 347 60 55 80 71 97 114 129 132 128 126 141 155 144 149 156 169 165 147 143 144 147 149 150 150 151 155 157 158 162 166
229 224 234 239 231 240 254 291 277 289 320 350 349 347 28 116 107 107 122 126 129 139 133 134 160 166 156 146 144 151 144 144 144 148 150 146 145 138 135 135 148 153 166 173
265 249 239 242 244 243 222 237 272 336 342 331 328 338 328 164 157 156 151 145 146 135 129 146 169 161 160 155 150 145 150 152 150 149 146 145 142 141 136 130 128 147 154 168
246 247 244 250 259 254 231 233 276 290 284 286 309 321 325 291 162 171 160 150 151 152 157 171 169 161 158 153 150 146 145 145 143 138 140 141 141 142 141 135 119 90 104 122